This is the latest recevied weather packets stored in our database for station/object EA1JAO-11. If no packets are shown the sender has not sent any weather packets the latest 10 day(s).
| Time | Temp. | Humidity | Pressure | Rain* | Wind** | Luminosity | Snow |
|---|---|---|---|---|---|---|---|
| 1778073073 | 16.11° C | 86% | 1014.5 hPa | - | - | - | - |
| 1778071273 | 16.11° C | 78% | 1014.6 hPa | - | - | - | - |
| 1778069473 | 17.78° C | 64% | 1014.8 hPa | - | - | - | - |
| 1778067685 | 20.56° C | 56% | 1014.7 hPa | - | - | - | - |
| 1778065869 | 18.33° C | 74% | 1014.9 hPa | - | - | - | - |
| 1778064069 | 16.11° C | 72% | 1014.8 hPa | - | - | - | - |
| 1778062269 | 20° C | 64% | 1014.6 hPa | - | - | - | - |
| 1778060469 | 16.67° C | 84% | 1014.7 hPa | - | - | - | - |
| 1778058669 | 16.11° C | 86% | 1014.6 hPa | - | - | - | - |
| 1778056869 | 16.11° C | 86% | 1014.6 hPa | - | - | - | - |
| 1778055069 | 15.56° C | 91% | 1014.6 hPa | - | - | - | - |
| 1778053275 | 14.44° C | 89% | 1014.7 hPa | - | - | - | - |
| 1778051472 | 13.33° C | 92% | 1014.7 hPa | - | - | - | - |
| 1778049676 | 12.22° C | 96% | 1014.8 hPa | - | - | - | - |
| 1778047873 | 11.67° C | 97% | 1014.5 hPa | - | - | - | - |
| 1778046076 | 11.67° C | 96% | 1014.5 hPa | - | - | - | - |
| 1778044272 | 11.11° C | 96% | 1014.6 hPa | - | - | - | - |
| 1778042477 | 10.56° C | 96% | 1014.2 hPa | - | - | - | - |
| 1778040672 | 10.56° C | 95% | 1014.6 hPa | - | - | - | - |
| 1778038876 | 10.56° C | 95% | 1014.7 hPa | - | - | - | - |
| 1778037072 | 10.56° C | 93% | 1014.7 hPa | - | - | - | - |
| 1778033468 | 11.11° C | 92% | 1014.9 hPa | - | - | - | - |
| 1778031676 | 11.67° C | 91% | 1015.1 hPa | - | - | - | - |
| 1778029872 | 12.22° C | 90% | 1015.2 hPa | - | - | - | - |
| 1778026273 | 12.78° C | 90% | 1015.7 hPa | - | - | - | - |
* Rain since midnight (hover to see other rain measurements)
** Current wind speed in m/s (hover to see current wind gust speed)